Location: Poughquag
(41.6090°N, 73.6820°W)
Time: 02:00:41
(UTC-04:00)

Explorer 7 - Visible Passes

Search period start: 15 October 2019 00:00
Search period end: 25 October 2019 00:00
Orbit: 485 x 680 km, 50.3° (Epoch: 14 October)

Date Brightness Start Highest point End Pass type
(mag) Time Alt. Az. Time Alt. Az. Time Alt. Az.
15 Oct 7.3 18:46:45 10° NW 18:50:38 44° NNE 18:54:41 10° E visible
15 Oct 7.9 20:27:14 10° WNW 20:31:01 41° SW 20:31:01 41° SW visible
16 Oct 6.9 18:51:43 10° NW 18:55:42 62° NNE 18:59:52 10° ESE visible
16 Oct 8.6 20:32:34 10° W 20:36:02 25° SW 20:36:14 25° SW visible
17 Oct 6.8 18:56:42 10° WNW 19:00:44 88° SSW 19:05:02 10° SE visible
17 Oct 9.3 20:38:18 10° W 20:40:51 16° SW 20:41:36 15° SW visible
18 Oct 7.5 19:01:44 10° WNW 19:05:42 56° SW 19:09:53 10° SE visible
19 Oct 8.4 19:06:55 10° WNW 19:10:36 34° SW 19:14:29 10° SSE visible
20 Oct 9.3 19:12:22 10° W 19:15:27 21° SW 19:18:40 10° S visible
21 Oct 9.8 19:18:28 10° WSW 19:20:15 12° SW 19:22:03 10° SSW visible
